Showing default

HULIANWANG DIGUI-16, 62976

Orbit data source: Space-Track

HULIANWANG DIGUI-16, 62976 is a payload satellite owned by Zhongguo Xingwang (CN) in LEO that was launched on Tue, 11 Feb 2025 UTC via a CHANG ZHENG 8A launch vehicle from the Wenchang Satellite Launch Center (WSC). Payload-class satellites include a variety of spacecraft equipped with specific instruments for various scientific and technological missions. These include communications satellites like Starlink; space stations such as the ISS; scientific satellites like the Hubble; Earth observation satellites from companies like Planet Labs, Umbra, and HawkEye 360; GPS; miniature CubeSats for education and research; and military/defense satellites.

Loading next visibility...
Identifier
62976, 2025-030F
Orbit
LEO
Country
Flag of CNCN / PRC
Related business
Manufacturer
CAST
Mission
Operational Civil Communications
Bus & Motor
XINGWANG C, Unknown motor
Mass
~700 kg wet, ~700 kg dry
Launch date (UTC)
2025-02-11 (1 year ago)
Launch vehicle
CHANG ZHENG 8A
Launch site
Wenchang Satellite Launch Center (WSC)
Object type
Payload
Rocket body
Debris
Shape & HBR
Box + 2 Pan, 2.1 m
Radar Cross Section
5.935 m², Large (>1 m²)

Expand to show TLE details & history
Last TLE update: 8 hours ago

TLE from 8 hours ago
0 HULIANWANG DIGUI-16
1 62976U 25030F   26037.23114534 -.00000068  00000-0  12087-3 0  9997
2 62976  50.0070 345.2874 0000472  78.9949 281.0976 13.29336060 48442
Epoch: 2026-02-06T05:32Z
TLE epoch observation values (Epoch: 2026-02-06T05:32:50.957Z)
Latitude
-0.00003°
Longitude
125.70306°
Altitude
1,149.707 km
Speed
7.279 km/s
True Right ascension
23h 01m 08s
True Declination
0° 00' 00"
Sunlit
Object was in daylight at epoch
Visualization orbit readout
Latitude
Unknown
Longitude
Unknown
Altitude
Unknown
Speed
Unknown
Apparent Right ascension
Unknown
Apparent Declination
Unknown
Sunlit
N/A
Visualization observer readout
Local Sidereal Time
16:07:42
Azimuth
Unknown
Elevation
Unknown
Doppler factor
Unknown
Orbital elements
Apogee altitude
1,150.328 km
Perigee altitude
1,149.618 km
Semi-major axis
7,528.11 km
Eccentricity
0.00005
Inclination
50.007°
RAAN
345.2874°
Arg. of periapsis
78.9949°
True anomaly
281.09229°
Mean anomaly
281.0976°
Eccentric anomaly
281.09495°
Mean motion
3.32288 °/min
Orbital period
108.34 mins
BSTAR
0.00012087
Loading maneuver chart data...
Computing Atmospheric mass density...
Loading historical data...
Loading historical data...
Loading historical data...
Loading historical data...
Loading historical data...
Loading historical data...
Loading historical data...

Documentation

Showing up to 5 results
|